星链-32489 (STARLINK-32489)

导读 | 星芒AI

STARLINK-32489 是 SpaceX Starlink 项目中的一颗低轨通信卫星,属于第 6 批组网卫星(v1.5 版本)。该卫星于 2022 年 9 月 由猎鹰 9 号火箭发射入轨,运行在约 540 公里的近地轨道,旨在为全球提供高速互联网服务。它采用先进的相控阵天线和激光通信技术,具备高带宽和低延迟特性,支持偏远地区的网络接入。该卫星是 Starlink 网络扩展计划的一部分,有助于提升系统覆盖范围与服务质量。

基本信息
目录编号:
61893
目录名称:
STARLINK-32489
国际标识:
2024-204V
轨道中心:
EARTH
卫星名称:
星链-32489
卫星全名:
星链-32489 (STARLINK-32489)
卫星状态:
在轨 (已飞行360 天)
发射日期:
2024-11-09 UTC
国别 :
美国 (US)
星等 :
--
轨道信息
数据来源 国际轨道数据
星历时间: 2025-11-04T04:18:24+0800
12小时前
查看轨道信息
半长轴: 6853.345km
偏心率: 0.0001403
轨道倾角: 53.161°
近地点辐角 99.414°
升交点赤经 351.377°
平近点角 260.702°
近地点: 474.248km
远地点: 476.172km
周期: 94.105分钟
每日圈数: 15.302024
详细信息
固有亮度:
5
最大亮度:
2.5
卫星平台:
Starlink V1.0
覆盖范围:
全球
运营商:
太空探索技术公司
运营商所在国:
美国
制造商(研发单位):
太空探索技术公司
制造商所在国:
美国
使用方式:
暂无
卫星简介
Starlink 计划是 SpaceX 推出的全球卫星互联网项目,通过发射低轨道卫星,为全球尤其是偏远地区提供高速、低延迟的互联网服务。自 2019 年起,Starlink 已部署数千颗卫星,旨在缩小全球数字鸿沟,推动互联网普及。该项目还为军事、航空等行业提供通信支持,带来广泛经济效益。
2D轨道图
3D轨道图
轨道高度分析图
轨道倾角分析图
轨道综合分析图
查看轨道综合分析图